TimeEST,TemperatureF,Dew PointF,Humidity,Sea Level PressureIn,VisibilityMPH,Wind Direction,Wind SpeedMPH,Gust SpeedMPH,PrecipitationIn,Events,Conditions,WindDirDegrees,DateUTC
12:55 AM,39.0,29.5,69,29.81,10.0,West,15.0,-,N/A,,Clear,260,2012-12-27 05:55:00
1:55 AM,38.5,28.9,69,29.82,10.0,West,17.3,24.2,N/A,,Clear,260,2012-12-27 06:55:00
2:55 AM,37.8,28.9,71,29.85,10.0,West,10.4,-,N/A,,Clear,260,2012-12-27 07:55:00
3:55 AM,37.0,28.6,71,29.86,10.0,West,9.2,-,N/A,,Clear,270,2012-12-27 08:55:00
4:55 AM,36.5,28.6,73,29.86,10.0,West,6.9,-,N/A,,Clear,270,2012-12-27 09:55:00
5:55 AM,35.6,28.8,76,29.88,10.0,West,9.2,-,N/A,,Clear,270,2012-12-27 10:55:00
6:55 AM,34.9,28.8,78,29.93,10.0,West,8.1,-,N/A,,Clear,260,2012-12-27 11:55:00
7:55 AM,34.5,28.8,79,29.95,10.0,West,5.8,-,N/A,,Partly Cloudy,260,2012-12-27 12:55:00
8:55 AM,39.2,30.2,70,29.97,10.0,West,8.1,-,N/A,,Clear,270,2012-12-27 13:55:00
9:55 AM,42.1,30.6,64,29.99,10.0,West,11.5,-,N/A,,Clear,260,2012-12-27 14:55:00
10:55 AM,45.9,30.9,56,30.01,10.0,West,12.7,-,N/A,,Partly Cloudy,270,2012-12-27 15:55:00
11:55 AM,49.3,30.7,49,30.00,10.0,West,8.1,-,N/A,,Mostly Cloudy,280,2012-12-27 16:55:00
12:55 PM,52.3,30.4,43,29.99,10.0,West,5.8,-,N/A,,Mostly Cloudy,270,2012-12-27 17:55:00
1:55 PM,54.1,29.3,39,29.98,10.0,West,8.1,-,N/A,,Mostly Cloudy,280,2012-12-27 18:55:00
2:55 PM,54.7,29.3,38,29.97,10.0,WNW,11.5,-,N/A,,Mostly Cloudy,300,2012-12-27 19:55:00
3:55 PM,54.3,29.5,39,29.99,10.0,WNW,8.1,-,N/A,,Mostly Cloudy,300,2012-12-27 20:55:00
4:55 PM,50.4,31.1,48,30.00,10.0,NW,8.1,-,N/A,,Mostly Cloudy,310,2012-12-27 21:55:00
5:55 PM,45.1,31.5,59,30.03,10.0,NNW,3.5,-,N/A,,Mostly Cloudy,340,2012-12-27 22:55:00
6:55 PM,43.2,32.5,66,30.05,10.0,Calm,Calm,-,N/A,,Overcast,0,2012-12-27 23:55:00
7:55 PM,41.0,33.8,76,30.06,10.0,NNW,3.5,-,N/A,,Overcast,340,2012-12-28 00:55:00
8:55 PM,38.1,34.0,85,30.06,10.0,Calm,Calm,-,N/A,,Overcast,0,2012-12-28 01:55:00
9:55 PM,36.5,34.3,92,30.06,10.0,Calm,Calm,-,N/A,,Overcast,0,2012-12-28 02:55:00
10:55 PM,34.7,32.7,92,30.08,10.0,NNW,3.5,-,N/A,,Mostly Cloudy,330,2012-12-28 03:55:00
11:55 PM,33.4,32.5,96,30.07,10.0,NNW,3.5,-,N/A,,Clear,330,2012-12-28 04:55:00